CZ-6A DEB, 54308

Orbit data source: Space-Track

CZ-6A DEB, 54308 is space debris in SSO originally from a launch on Fri, 11 Nov 2022 UTC launched from the Taiyaun Space Center, China (TSC). Debris objects in space refer to the collection of defunct objects orbiting the Earth. Examples of debris include non-operational satellites, rocket bodies, and fragments generated from explosions, collisions, or faulty payload assembly.

Loading next visibility...
Identifier
54308, 2022-151BB
Orbit
SSO
Country
Flag of CNCN / PRC
Related business
Manufacturer
SAST
Mission
Spacecraft
Bus & Motor
Unknown
Mass
Unknown
Launch date (UTC)
2022-11-11 (3 years ago)
Launch vehicle
Unknown
Launch site
Taiyaun Space Center, China (TSC)
Object type
Payload
Rocket body
Debris
Shape & HBR
Unknown shape, 0.1 m
Radar Cross Section
Small (<0.1 m²)

Expand to show TLE details & history
Last TLE update: 21 hours ago

TLE from 21 hours ago
0 CZ-6A DEB
1 54308U 22151BB  25352.13672777  .00026720  00000-0  29783-2 0  9996
2 54308  98.6509  52.3304 0047858 107.4567 253.1885 14.86184755163841
Epoch: 2025-12-18T03:16Z
TLE epoch observation values (Epoch: 2025-12-18T03:16:53.279Z)
Latitude
-0.00007°
Longitude
-83.88815°
Altitude
622.697 km
Speed
7.542 km/s
True Right ascension
03h 29m 19s
True Declination
0° 00' 00"
Sunlit
Object was in full shadow at epoch
Visualization orbit readout
Latitude
Unknown
Longitude
Unknown
Altitude
Unknown
Speed
Unknown
Apparent Right ascension
Unknown
Apparent Declination
Unknown
Sunlit
N/A
Visualization observer readout
Local Sidereal Time
23:01:23
Azimuth
Unknown
Elevation
Unknown
Doppler factor
Unknown
Orbital elements
Apogee altitude
640.367 km
Perigee altitude
573.508 km
Semi-major axis
6,985.074 km
Eccentricity
0.00479
Inclination
98.6509°
RAAN
52.3304°
Arg. of periapsis
107.4567°
True anomaly
252.66444°
Mean anomaly
253.1885°
Eccentric anomaly
252.92638°
Mean motion
3.71781 °/min
Orbital period
96.83 mins
BSTAR
0.0029783
Loading maneuver chart data...
Computing Atmospheric mass density...

Documentation

Showing up to 5 results
|